Dewpoint
14 12 14 10 9 7 10 15 19 21 23 26 29 29 26 26 26 29 31 37 44 43 40 40 41 41 41 44 52 54 55 56 55 54 56 57 57 58 59 60 60 61 60 62 63 64 65 66 68 69 69 69 70 71 72 73 73 74 73 74 74 74 74 73 73 73 71 71 72 73 72 70 71 73 74 75 75 73 73 75 76 78 78 78 78 77
12 11 10 6 5 7 7 12 16 20 22 25 27 27 26 25 24 26 30 39 44 40 39 41 40 42 43 44 48 55 55 54 54 55 57 57 57 59 60 60 61 62 61 61 63 64 65 66 67 68 69 70 70 71 72 73 74 75 74 74 74 74 74 74 73 73 73 73 72 72 71 70 69 71 72 73 74 72 73 76 78 78 77 78 78 77
15 7 4 4 4 6 6 7 12 17 20 22 23 25 26 25 26 30 36 43 44 41 37 40 41 41 43 44 50 54 54 55 55 56 56 59 59 60 60 61 61 61 62 61 62 64 64 65 65 68 69 69 69 71 72 74 74 74 74 74 75 74 74 74 74 74 74 74 74 73 72 71 69 71 71 70 71 73 73 75 77 77 77 78 77 77
11 4 2 3 4 3 5 7 10 15 18 20 21 25 25 25 23 33 40 43 43 42 37 41 40 41 44 47 47 52 53 55 56 55 56 58 60 60 59 61 61 61 63 62 63 62 62 63 65 67 68 69 69 70 72 73 74 74 75 75 75 75 75 74 75 75 75 75 76 76 75 74 72 70 71 73 73 73 74 73 75 76 76 76 75 76
5 5 4 3 4 7 7 6 6 10 14 17 20 22 23 24 25 30 34 41 42 43 42 41 42 44 44 41 44 50 52 53 54 55 56 58 59 60 60 60 62 62 64 64 63 62 61 63 64 66 68 69 69 69 71 72 73 74 75 76 76 75 75 75 75 76 76 76 76 76 76 75 74 73 72 72 72 72 73 72 73 74 75 75 74 73
7 9 9 1 9 8 5 5 7 8 12 16 19 22 23 25 26 30 31 39 40 40 43 40 39 39 41 41 41 45 49 52 54 56 57 59 59 61 60 61 61 61 64 66 65 62 61 62 64 66 68 69 69 70 70 71 72 74 75 76 77 76 76 75 75 76 76 75 74 73 72 72 72 71 71 71 71 70 70 69 68 72 73 72 73 73
7 11 10 9 8 3 0 1 4 6 10 16 20 22 23 25 24 30 27 36 37 37 39 41 39 37 38 39 41 44 46 52 54 55 56 59 61 60 61 61 60 60 61 64 64 63 60 62 63 66 68 69 68 69 70 71 73 74 75 77 77 77 76 76 76 76 76 75 74 74 73 72 72 71 72 73 72 70 69 70 71 71 72 73 72 71
15 9 10 8 5 2 0 2 4 5 8 15 19 21 23 23 27 29 30 35 33 34 35 40 40 39 36 35 40 44 45 50 55 55 57 56 60 59 60 59 61 60 61 62 64 64 62 62 64 65 68 69 67 69 70 71 72 74 76 77 77 77 76 77 77 77 76 75 74 74 74 73 72 71 72 73 74 74 73 72 72 72 72 73 73 71
18 14 10 7 6 2 -1 1 7 6 7 14 19 19 20 23 27 26 30 31 32 32 35 34 37 39 37 38 42 46 45 48 53 55 56 57 58 60 59 58 59 60 61 61 62 63 63 62 63 65 67 68 68 68 70 71 72 74 75 76 77 77 77 77 78 77 77 76 75 74 74 74 73 73 73 72 72 73 74 73 73 73 72 73 73 73
18 17 12 6 4 2 2 0 2 7 9 14 18 20 19 21 23 25 27 29 32 33 33 35 33 36 35 36 36 46 44 45 48 52 54 57 57 58 59 59 58 61 62 61 61 63 63 63 63 65 66 67 67 68 70 71 72 73 75 76 77 77 77 77 78 78 78 78 76 75 75 74 74 73 73 72 71 73 73 73 73 73 72 70 70 72
16 24 21 8 4 3 4 3 1 5 10 13 18 17 18 19 22 25 27 30 31 30 32 32 31 34 34 33 33 39 45 45 40 44 51 55 57 57 59 59 58 60 61 61 61 62 63 63 64 64 65 67 68 68 70 70 72 73 74 76 76 77 77 77 78 78 78 78 77 76 75 75 75 74 74 73 73 72 73 73 72 72 71 71 69 68
18 16 14 10 9 4 5 4 7 10 9 10 15 17 21 24 25 28 27 32 30 29 35 32 27 35 32 31 32 38 44 43 38 36 40 49 54 57 59 58 58 59 61 62 61 61 62 64 65 65 65 67 69 69 69 70 71 72 74 75 76 77 77 77 77 78 77 77 77 77 76 76 76 75 73 74 72 72 73 73 72 71 70 71 70 69
18 17 15 11 17 6 5 5 9 9 6 6 12 19 21 27 28 26 28 29 30 30 32 28 26 30 35 35 33 32 33 36 38 34 33 34 49 56 58 59 59 59 59 61 63 63 62 63 64 65 67 69 70 70 70 70 69 72 74 75 75 76 77 77 77 77 77 77 77 77 76 76 76 75 75 74 74 73 73 72 72 71 70 70 69 69
17 19 18 14 14 12 6 4 2 4 2 5 11 18 23 24 25 24 24 28 28 29 27 27 28 29 35 35 36 33 33 34 34 37 36 38 40 51 57 59 58 59 59 60 61 63 64 64 64 66 67 69 70 70 70 70 70 72 73 75 75 76 77 77 77 77 77 77 77 77 77 76 76 76 76 75 74 73 73 73 73 72 70 70 70 69
18 18 17 14 12 12 7 3 -2 6 5 11 8 11 22 26 24 26 24 24 25 26 25 28 30 33 29 31 31 34 38 36 32 30 36 42 47 49 54 58 57 59 60 60 62 62 63 64 66 66 67 68 69 69 69 70 71 72 73 74 75 75 76 77 77 77 77 77 77 77 77 77 77 76 75 75 74 74 74 73 73 73 71 70 70 68
16 15 16 15 14 13 10 5 -0 2 9 7 3 9 17 23 27 23 23 23 23 24 27 31 32 33 30 37 44 41 34 35 35 36 39 45 50 52 54 55 56 57 58 59 61 62 64 65 67 66 67 68 69 70 69 70 71 71 73 74 75 75 76 76 77 77 77 77 77 77 78 77 77 76 76 76 75 75 74 74 74 74 73 71 70 70
18 15 13 16 15 9 10 9 3 2 9 10 7 8 13 19 20 25 28 22 24 26 24 29 34 31 30 33 35 37 37 35 34 33 34 41 47 54 54 54 55 56 57 59 61 61 64 65 66 66 68 67 67 68 69 71 72 72 73 73 75 75 76 77 77 76 77 77 77 77 77 77 77 77 76 75 75 74 75 75 74 73 73 72 71 70
16 15 13 13 12 9 12 10 7 3 5 12 9 8 12 16 20 25 20 29 27 24 24 23 29 31 27 28 34 32 30 27 30 31 26 36 45 51 52 54 55 55 57 60 63 64 64 65 66 66 66 66 67 68 70 71 72 72 73 73 74 75 75 76 76 76 76 77 77 77 77 78 77 76 76 75 75 76 75 75 75 74 72 71 70 70
18 14 11 13 11 11 10 7 6 7 8 9 8 8 10 21 23 27 26 23 23 22 22 22 22 26 30 31 29 30 30 30 32 33 31 29 41 49 51 53 55 56 56 58 60 62 64 64 65 67 65 65 67 70 70 71 71 72 72 73 73 74 74 75 75 76 76 77 76 76 77 77 77 77 76 75 76 76 75 74 74 73 72 72 71 70
19 14 13 12 11 9 8 5 8 6 7 7 9 13 14 16 20 24 27 28 28 24 23 20 19 25 34 28 27 30 34 33 29 30 28 27 36 49 51 52 54 56 57 57 58 61 63 63 64 64 64 64 67 68 69 68 69 69 71 73 73 73 75 75 76 76 76 76 76 76 77 78 77 77 76 76 76 75 74 74 73 73 71 71 70 69
22 27 19 14 13 8 9 6 2 4 7 6 4 14 13 13 16 18 19 23 24 23 22 22 19 24 31 28 26 31 33 34 31 31 33 31 31 32 50 51 55 58 57 58 59 60 62 63 63 63 65 65 66 68 67 66 67 68 69 71 72 73 73 73 75 75 76 76 76 77 77 77 77 77 76 76 74 74 74 74 74 72 71 71 69 68
26 24 20 18 15 12 9 11 5 -1 3 4 10 9 10 16 17 17 19 21 22 20 24 19 21 29 27 28 32 30 31 29 31 31 32 32 28 36 44 53 57 58 60 59 58 58 59 63 63 63 65 65 65 65 66 66 67 67 68 68 70 70 71 71 73 75 76 76 76 76 77 77 77 76 75 74 74 74 73 74 73 73 72 70 70 68
27 27 22 19 17 15 13 11 12 6 1 3 7 5 7 8 17 18 20 23 21 20 18 20 23 27 29 32 33 33 31 26 29 28 28 27 33 31 51 49 56 60 59 57 58 56 58 62 63 64 66 67 67 68 68 67 66 67 68 68 70 70 70 70 72 74 76 76 76 76 76 77 76 75 75 73 73 71 72 72 73 72 71 69 68 69
42 25 26 23 25 20 19 16 16 13 8 3 1 5 4 4 7 12 18 24 22 23 23 20 25 23 27 38 35 31 37 29 32 29 33 29 28 34 50 52 58 61 61 59 59 56 59 62 65 66 67 68 68 69 69 68 68 68 68 67 68 69 70 70 71 73 75 76 76 76 77 76 75 74 72 71 71 71 71 71 72 71 70 68 66 67
24 32 29 25 25 25 23 23 17 16 13 9 4 4 6 6 7 10 15 23 23 21 22 21 19 22 32 40 49 43 28 25 25 25 31 39 37 38 54 57 57 62 63 61 60 60 61 63 66 67 68 70 70 69 70 70 69 68 69 68 67 68 70 71 71 72 75 75 74 75 76 75 74 73 72 71 70 71 70 69 70 70 69 68 66 67
23 27 30 23 24 23 23 21 20 20 17 15 14 7 6 4 10 14 14 21 17 29 32 24 24 29 28 41 35 38 41 37 34 30 25 32 41 51 56 59 62 63 64 63 62 62 62 66 68 69 70 71 70 70 71 71 70 69 69 70 68 68 70 71 71 72 74 74 74 75 75 75 74 72 72 72 71 71 70 70 71 69 68 67 65 67
30 28 30 29 25 21 25 30 25 24 19 17 14 13 9 5 4 10 16 17 15 28 26 30 31 29 28 30 33 31 35 30 27 31 29 38 47 51 62 62 62 62 64 61 63 63 66 68 69 70 71 71 70 71 71 71 70 70 71 71 69 70 71 72 72 74 75 74 73 74 74 75 73 72 72 72 72 72 70 69 68 67 67 65 64 64
39 33 31 35 33 28 21 25 21 22 20 19 16 13 9 9 11 10 8 12 29 20 18 29 35 25 28 28 30 33 31 33 32 34 30 33 50 52 57 64 63 61 61 63 64 65 67 69 70 71 72 71 70 71 71 71 71 71 72 72 71 70 70 71 74 75 75 75 74 74 74 74 73 73 72 72 73 72 71 70 69 69 67 65 64 60
39 34 33 30 27 24 22 20 19 20 20 20 17 14 14 14 14 15 21 14 24 17 19 30 34 33 30 23 25 29 33 34 27 30 28 27 25 54 63 61 58 57 61 61 65 66 67 68 71 71 71 71 71 71 71 71 71 72 73 73 73 70 71 74 75 75 75 76 75 75 75 75 74 73 73 72 72 72 71 70 70 69 67 67 65 63
43 38 35 30 29 26 25 23 21 18 18 19 18 18 17 14 13 14 14 13 12 26 23 24 34 30 25 25 24 25 30 29 29 32 31 33 36 57 57 61 56 56 58 61 65 65 67 69 70 71 71 71 71 71 71 71 72 72 72 72 72 73 73 74 75 76 76 75 75 75 75 74 74 73 72 72 72 72 72 70 70 69 70 69 66 64
40 37 36 30 30 27 25 24 22 20 19 18 18 17 16 15 15 14 12 13 20 19 15 17 27 29 30 32 29 28 30 25 27 22 27 36 41 46 54 54 56 55 57 61 65 65 67 68 69 70 71 71 71 71 71 72 72 73 71 73 73 74 74 74 76 76 76 75 74 74 75 74 74 73 72 72 72 73 72 71 70 70 69 69 68 66
37 38 36 35 32 28 25 23 22 21 20 18 19 19 17 15 17 15 15 14 19 24 25 21 25 25 26 28 27 30 29 33 34 37 34 34 33 44 56 55 57 59 58 60 64 65 66 66 69 70 70 70 71 72 72 73 73 73 72 73 73 73 73 74 75 75 76 74 74 74 74 74 74 73 72 72 71 72 72 71 71 70 70 68 66 66
39 38 36 34 31 29 25 22 21 21 21 20 21 19 20 20 19 17 18 19 17 15 19 21 21 26 29 26 26 30 23 27 35 39 43 45 57 54 56 57 57 59 60 63 64 66 65 65 68 70 69 70 71 72 72 73 72 73 73 73 74 74 74 73 73 76 76 75 75 74 73 73 73 72 72 72 71 72 71 71 70 69 69 67 67 67
41 38 38 40 35 32 27 24 26 26 20 20 25 21 22 19 20 19 17 18 19 20 18 19 22 31 28 27 31 32 23 26 40 51 50 52 59 63 57 57 58 58 60 61 64 65 66 67 67 68 69 71 72 72 71 73 73 73 73 74 74 74 75 75 75 75 75 75 74 73 74 73 72 72 72 71 71 71 70 70 69 69 68 67 68 67
38 41 39 41 40 35 32 30 28 25 24 30 34 31 24 21 20 20 21 19 19 22 21 23 25 29 32 31 31 34 40 40 43 49 55 52 58 57 61 58 61 61 62 63 65 64 67 68 68 69 70 70 71 71 71 72 72 73 74 74 74 75 75 75 75 75 75 75 74 73 73 72 72 72 71 71 71 71 70 69 70 69 67 66 65 65
39 38 41 38 38 38 37 33 27 26 31 32 32 37 38 32 26 23 21 21 22 21 25 25 28 25 30 33 31 34 39 51 54 58 58 55 54 53 51 54 59 58 60 62 66 66 67 65 68 68 70 70 70 70 70 71 71 73 73 74 74 74 74 75 74 75 75 75 74 73 73 72 72 72 71 71 70 70 70 70 69 69 68 66 65 65
38 44 38 36 41 37 39 39 31 36 33 32 32 47 46 46 43 34 27 25 25 25 24 26 28 26 28 32 30 40 52 45 47 47 49 48 53 51 48 51 53 57 58 61 61 64 68 68 69 69 71 70 69 68 67 68 69 72 73 73 72 74 74 74 74 74 75 74 73 72 72 72 71 71 71 71 70 69 69 70 69 68 67 66 65 63
41 40 40 39 39 38 35 40 33 31 31 36 47 46 46 46 47 47 46 39 41 28 25 28 33 35 33 29 30 48 50 43 38 35 45 47 52 54 52 53 52 55 57 61 66 68 69 68 67 70 67 68 67 67 68 68 71 73 73 72 73 73 73 73 73 74 74 74 73 72 72 72 71 71 70 70 69 69 69 69 68 66 65 63 62 61
37 39 42 36 38 35 37 36 39 33 34 46 47 44 45 46 45 47 41 36 39 35 33 29 29 35 36 32 40 51 44 36 32 37 44 53 49 49 52 55 56 58 63 63 63 64 65 67 68 68 69 69 68 69 70 71 73 73 73 72 71 71 72 72 73 73 74 74 73 72 71 71 71 71 70 70 69 68 69 69 68 64 62 60 59 60
38 36 39 32 35 35 38 37 37 36 35 48 44 45 44 46 44 43 35 31 53 54 50 39 35 34 38 40 47 50 43 33 29 36 54 53 49 52 56 58 59 59 61 64 64 68 71 72 71 69 69 70 72 72 72 72 72 72 71 70 71 71 71 72 73 74 74 74 73 71 71 71 71 71 70 70 70 70 69 68 66 63 61 60 59 57
38 35 35 31 30 33 37 36 34 36 47 46 47 46 45 45 46 42 34 40 56 56 55 55 53 46 47 49 50 46 47 41 50 58 54 52 54 59 61 63 65 64 63 63 67 70 71 70 69 68 69 73 72 70 70 70 71 72 73 73 72 72 71 73 74 74 74 74 72 70 71 70 70 70 69 69 69 69 68 66 64 63 63 62 60 59
39 39 38 35 29 29 32 33 32 35 45 47 48 45 47 41 39 42 50 57 58 56 56 53 51 51 52 53 51 48 49 56 56 55 58 59 61 62 61 61 62 63 65 68 69 67 67 68 72 72 71 73 71 71 71 72 73 73 73 72 72 72 72 73 74 74 74 73 71 70 70 70 69 69 69 70 70 69 66 65 64 64 63 62 63 63
38 38 34 33 34 31 33 32 31 31 46 47 47 48 51 46 49 53 55 56 55 56 56 58 55 54 52 53 52 55 57 57 58 59 61 63 64 64 65 65 66 66 67 69 70 69 68 68 68 69 71 71 72 72 73 74 74 73 73 72 73 73 74 73 74 74 73 73 70 70 70 70 70 69 69 69 69 68 65 64 64 65 65 66 65 64
43 36 32 32 34 31 33 34 33 39 50 49 47 45 51 51 52 54 54 55 55 56 57 58 60 60 60 60 60 61 64 66 67 66 66 66 66 66 65 64 64 65 64 63 65 68 69 71 71 71 72 72 73 74 73 74 72 72 73 74 74 74 73 74 73 72 71 71 70 70 70 69 69 69 69 69 69 67 65 65 65 66 67 66 64 64
52 46 49 36 39 34 32 32 49 53 51 49 51 51 51 51 52 53 54 53 54 55 58 58 60 61 62 63 64 64 63 63 63 62 62 62 62 64 66 67 66 66 67 68 67 70 71 71 72 71 72 72 73 74 73 73 72 73 74 73 73 73 72 72 72 71 70 69 69 70 69 69 69 69 68 68 67 67 65 65 66 66 66 65 65 64
48 49 55 47 45 51 51 54 55 53 50 49 49 49 47 46 46 49 52 52 53 54 56 57 57 58 58 60 59 60 60 60 60 61 62 64 67 68 69 69 69 69 70 71 72 72 72 72 72 72 71 72 72 72 73 73 73 74 73 72 72 72 72 71 70 70 69 69 69 68 69 69 68 68 68 67 66 66 65 66 66 66 65 64 64 64
47 45 45 42 49 40 38 52 54 55 56 50 47 46 45 45 46 48 52 54 53 52 53 56 57 58 59 59 58 58 58 59 60 61 63 63 63 64 64 66 68 69 71 72 72 71 71 70 68 68 69 70 70 70 69 71 72 72 72 71 71 71 72 70 69 68 69 69 68 68 69 69 67 66 67 67 66 65 65 65 65 65 65 64 63 62
48 47 47 49 49 42 50 53 55 54 55 54 51 49 49 50 49 49 50 51 53 54 52 53 54 55 57 59 60 58 57 58 59 60 61 62 64 65 66 67 67 67 69 70 70 70 70 70 70 69 69 69 69 69 69 69 70 70 69 68 67 69 71 69 69 67 68 68 67 68 68 68 67 67 66 65 65 64 65 65 65 64 63 63 63 62
46 48 47 49 48 51 52 54 53 52 50 51 52 54 55 54 50 49 50 51 49 50 52 52 51 52 54 56 58 59 59 60 59 61 60 62 64 65 66 66 68 68 69 69 70 70 69 69 69 69 68 69 69 70 70 70 70 70 70 69 69 70 69 69 68 68 68 68 67 67 68 67 67 66 66 65 67 58 53 52 60 65 63 67 68 65
44 46 47 47 46 46 47 51 52 46 46 49 51 53 54 56 54 52 50 49 51 50 49 49 50 51 51 53 56 56 57 58 58 60 58 62 65 66 67 67 67 67 67 67 68 69 69 69 69 68 69 69 70 70 70 70 70 69 67 69 68 69 68 68 67 66 65 66 65 64 65 66 65 66 65 65 61 58 53 48 42 44 55 60 53 51
45 48 47 47 48 46 49 52 54 54 54 51 52 53 55 56 55 53 54 51 50 52 51 50 48 50 50 52 53 54 56 57 57 57 57 58 62 64 65 66 65 65 65 66 66 67 68 69 69 69 69 69 70 70 70 69 68 68 66 68 68 67 68 67 66 64 63 64 63 63 64 65 65 66 66 65 62 61 60 57 53 42 41 45 48 46